Location: Avon
(37.7514°N, 90.2235°W)
Time: 00:05:30
(UTC+00:00)

Explorer 7 - Pass Details

Date: 21 November 2024
Orbit: 456 x 598 km, 50.3° (Epoch: 03 December)

Event Time Altitude Azimuth Distance (km) Brightness Sun altitude
Exits shadow 11:11:40 21° 346° (NNW) 1,255 8.4 -18.9°
Maximum altitude 11:13:23 28° 25° (NNE) 1,047 8.3 -18.6°
Drops below altitude 10° 11:17:06 10° 86° (E) 1,865 10.7 -17.8°
Sets 11:19:39 0° 98° (E) 2,784 12.2 -17.4°
